| time (UTC) | temp F | wind direction | speed MPH | gust MPH | rain 1hr in | rain 24hr in | rain mn in | humidity % | barometer mb |
| 20260905061041 | 83 | 212 | 1.0 | 2.0 | 0.00 | 0.00 | 0.00 | 69 | 1050.0 |
| 20260905060523 | 83 | 220 | 0.0 | 2.0 | 0.00 | 0.00 | 0.00 | 69 | 1048.2 |
| 20260905060021 | 83 | 222 | 1.0 | 2.0 | 0.00 | 0.00 | 0.00 | 68 | 1046.4 |
| 20260905055522 | 83 | 220 | 0.0 | 1.0 | 0.00 | 0.00 | 0.00 | 68 | 1047.4 |
| 20260905055042 | 83 | 222 | 1.0 | 2.0 | 0.00 | 0.00 | 0.00 | 68 | 1047.4 |
| 20260905054523 | 84 | 218 | 0.0 | 1.0 | 0.00 | 0.00 | 0.00 | 68 | 1045.9 |
| 20260905054024 | 84 | 217 | 1.0 | 2.0 | 0.00 | 0.00 | 0.00 | 68 | 1044.9 |
| 20260905053522 | 84 | 214 | 1.0 | 2.0 | 0.00 | 0.00 | 0.00 | 68 | 1045.5 |
| 20260905053021 | 84 | 222 | 1.0 | 2.0 | 0.00 | 0.00 | 0.00 | 67 | 1042.5 |
| 20260905052522 | 84 | 223 | 1.0 | 2.0 | 0.00 | 0.00 | 0.00 | 67 | 1043.3 |
| 20260905052022 | 84 | 215 | 1.0 | 2.0 | 0.00 | 0.00 | 0.00 | 68 | 1045.4 |
| 20260905051545 | 84 | 215 | 1.0 | 2.0 | 0.00 | 0.00 | 0.00 | 68 | 1045.8 |
| 20260905051023 | 84 | 230 | 2.0 | 2.0 | 0.00 | 0.00 | 0.00 | 68 | 1047.0 |
| 20260905050522 | 84 | 233 | 2.0 | 2.0 | 0.00 | 0.00 | 0.00 | 68 | 1046.7 |
| 20260905050044 | 84 | 226 | 1.0 | 2.0 | 0.00 | 0.00 | 0.00 | 68 | 1044.5 |
| 20260905045522 | 84 | 220 | 1.0 | 2.0 | 0.00 | 0.00 | 0.00 | 68 | 1046.2 |
| 20260905045021 | 84 | 216 | 0.0 | 1.0 | 0.00 | 0.00 | 0.00 | 68 | 1046.1 |
| 20260905044521 | 84 | 220 | 1.0 | 2.0 | 0.00 | 0.00 | 0.00 | 68 | 1048.5 |
| 20260905044021 | 84 | 228 | 1.0 | 2.0 | 0.00 | 0.00 | 0.00 | 68 | 1048.2 |
| 20260905043522 | 84 | 228 | 1.0 | 2.0 | 0.00 | 0.00 | 0.00 | 68 | 1046.3 |
| 20260905043020 | 84 | 230 | 2.0 | 2.0 | 0.00 | 0.00 | 0.00 | 68 | 1047.2 |
| 20260905042522 | 84 | 221 | 1.0 | 2.0 | 0.00 | 0.00 | 0.00 | 68 | 1047.0 |
| 20260905042022 | 84 | 220 | 0.0 | 1.0 | 0.00 | 0.00 | 0.00 | 68 | 1046.1 |
| 20260905041522 | 84 | 220 | 1.0 | 2.0 | 0.00 | 0.00 | 0.00 | 68 | 1048.0 |
| 20260905041023 | 84 | 223 | 1.0 | 2.0 | 0.00 | 0.00 | 0.00 | 68 | 1045.8 |
| 20260905040522 | 85 | 226 | 1.0 | 2.0 | 0.00 | 0.00 | 0.00 | 67 | 1044.8 |
| 20260905040022 | 85 | 220 | 1.0 | 2.0 | 0.00 | 0.00 | 0.00 | 67 | 1043.7 |
| 20260905035526 | 85 | 222 | 1.0 | 2.0 | 0.00 | 0.00 | 0.00 | 67 | 1044.4 |
| 20260905035023 | 85 | 229 | 1.0 | 2.0 | 0.00 | 0.00 | 0.00 | 67 | 1043.5 |
| 20260905034542 | 85 | 225 | 1.0 | 2.0 | 0.00 | 0.00 | 0.00 | 66 | 1039.6 |
| 20260905034022 | 86 | 213 | 1.0 | 2.0 | 0.00 | 0.00 | 0.00 | 65 | 1037.5 |
| 20260905033522 | 86 | 210 | 1.0 | 1.0 | 0.00 | 0.00 | 0.00 | 65 | 1033.8 |
| 20260905033022 | 86 | 224 | 1.0 | 2.0 | 0.00 | 0.00 | 0.00 | 64 | 1031.1 |
| 20260905032523 | 86 | 219 | 1.0 | 2.0 | 0.00 | 0.00 | 0.00 | 63 | 1028.5 |
| 20260905032023 | 87 | 207 | 1.0 | 1.0 | 0.00 | 0.00 | 0.00 | 62 | 1026.3 |
| 20260905031523 | 87 | 217 | 1.0 | 2.0 | 0.00 | 0.00 | 0.00 | 61 | 1022.7 |
| 20260905031025 | 87 | 228 | 1.0 | 2.0 | 0.00 | 0.00 | 0.00 | 61 | 1021.6 |
| 20260905030522 | 87 | 222 | 1.0 | 2.0 | 0.00 | 0.00 | 0.00 | 61 | 1022.2 |
| 20260905030022 | 87 | 226 | 1.0 | 2.0 | 0.00 | 0.00 | 0.00 | 60 | 1020.7 |
| 20260905025523 | 87 | 236 | 2.0 | 2.0 | 0.00 | 0.00 | 0.00 | 59 | 1018.9 |
| 20260905025024 | 87 | 248 | 2.0 | 2.0 | 0.00 | 0.00 | 0.00 | 59 | 1019.0 |
| 20260905024524 | 88 | 232 | 2.0 | 2.0 | 0.00 | 0.00 | 0.00 | 60 | 1019.8 |
| 20260905024022 | 88 | 232 | 2.0 | 2.0 | 0.00 | 0.00 | 0.00 | 59 | 1018.9 |
| 20260905023521 | 88 | 239 | 2.0 | 3.0 | 0.00 | 0.00 | 0.00 | 59 | 1019.0 |
| 20260905023022 | 88 | 231 | 1.0 | 2.0 | 0.00 | 0.00 | 0.00 | 59 | 1019.0 |
| 20260905022542 | 88 | 233 | 2.0 | 2.0 | 0.00 | 0.00 | 0.00 | 59 | 1018.7 |
| 20260905022023 | 88 | 237 | 2.0 | 2.0 | 0.00 | 0.00 | 0.00 | 59 | 1018.5 |
| 20260905021524 | 88 | 235 | 2.0 | 2.0 | 0.00 | 0.00 | 0.00 | 59 | 1017.8 |
| 20260905021023 | 88 | 236 | 2.0 | 2.0 | 0.00 | 0.00 | 0.00 | 58 | 1017.7 |
| 20260905020519 | 88 | 233 | 1.0 | 2.0 | 0.00 | 0.00 | 0.00 | 58 | 1017.0 |
| 20260905020020 | 89 | 223 | 1.0 | 2.0 | 0.00 | 0.00 | 0.00 | 58 | 1017.0 |
| 20260905015538 | 89 | 239 | 2.0 | 2.0 | 0.00 | 0.00 | 0.00 | 57 | 1016.2 |
| 20260905015023 | 89 | 237 | 2.0 | 2.0 | 0.00 | 0.00 | 0.00 | 57 | 1015.7 |
| 20260905014524 | 89 | 233 | 2.0 | 2.0 | 0.00 | 0.00 | 0.00 | 57 | 1016.1 |
| 20260905014023 | 89 | 229 | 1.0 | 2.0 | 0.00 | 0.00 | 0.00 | 57 | 1015.9 |
| 20260905013545 | 89 | 247 | 2.0 | 2.0 | 0.00 | 0.00 | 0.00 | 57 | 1016.3 |
| 20260905013044 | 90 | 246 | 2.0 | 3.0 | 0.00 | 0.00 | 0.00 | 57 | 1015.9 |
| 20260905012523 | 90 | 239 | 2.0 | 2.0 | 0.00 | 0.00 | 0.00 | 56 | 1015.1 |
| 20260905012023 | 90 | 231 | 1.0 | 2.0 | 0.00 | 0.00 | 0.00 | 56 | 1015.0 |
| 20260905011523 | 90 | 218 | 1.0 | 1.0 | 0.00 | 0.00 | 0.00 | 55 | 1014.2 |
| 20260905011021 | 91 | 227 | 1.0 | 2.0 | 0.00 | 0.00 | 0.00 | 54 | 1013.8 |
| 20260905010521 | 91 | 225 | 1.0 | 1.0 | 0.00 | 0.00 | 0.00 | 54 | 1013.5 |
| 20260905010021 | 91 | 235 | 1.0 | 2.0 | 0.00 | 0.00 | 0.00 | 53 | 1013.2 |
| 20260905005525 | 92 | 226 | 1.0 | 1.0 | 0.00 | 0.00 | 0.00 | 53 | 1013.0 |
| 20260905005024 | 92 | 228 | 1.0 | 1.0 | 0.00 | 0.00 | 0.00 | 51 | 1012.7 |
| 20260905004524 | 92 | 231 | 1.0 | 1.0 | 0.00 | 0.00 | 0.00 | 51 | 1012.5 |
| 20260905004024 | 93 | 233 | 1.0 | 1.0 | 0.00 | 0.00 | 0.00 | 50 | 1012.3 |
| 20260905003526 | 93 | 246 | 1.0 | 1.0 | 0.00 | 0.00 | 0.00 | 50 | 1012.2 |
| 20260905003022 | 94 | 246 | 1.0 | 1.0 | 0.00 | 0.00 | 0.00 | 50 | 1012.2 |
| 20260905002522 | 94 | 241 | 1.0 | 1.0 | 0.00 | 0.00 | 0.00 | 50 | 1012.2 |
| 20260905002042 | 95 | 258 | 0.0 | 1.0 | 0.00 | 0.00 | 0.00 | 49 | 1011.8 |
| 20260905001522 | 95 | 266 | 1.0 | 1.0 | 0.00 | 0.00 | 0.00 | 48 | 1011.5 |
| 20260905001021 | 95 | 0.0 | 0.0 | 0.00 | 0.00 | 0.00 | 47 | 1011.2 | |
| 20260905000525 | 95 | 270 | 0.0 | 1.0 | 0.00 | 0.00 | 0.00 | 46 | 1011.0 |
| 20260905000047 | 96 | 271 | 0.0 | 1.0 | 0.00 | 0.00 | 0.00 | 46 | 1010.9 |
| 20260904235525 | 96 | 275 | 0.0 | 1.0 | 0.00 | 0.00 | 0.00 | 45 | 1010.6 |
| 20260904235042 | 96 | 272 | 0.0 | 1.0 | 0.00 | 0.00 | 0.00 | 44 | 1010.5 |
| 20260904234522 | 96 | 277 | 0.0 | 1.0 | 0.00 | 0.00 | 0.00 | 44 | 1010.3 |
| 20260904234022 | 97 | 274 | 0.0 | 1.0 | 0.00 | 0.00 | 0.00 | 43 | 1010.0 |
| 20260904233523 | 97 | 275 | 0.0 | 1.0 | 0.00 | 0.00 | 0.00 | 44 | 1010.2 |
| 20260904233041 | 97 | 200 | 0.0 | 1.0 | 0.00 | 0.00 | 0.00 | 43 | 1010.0 |
| 20260904232523 | 97 | 255 | 0.0 | 1.0 | 0.00 | 0.00 | 0.00 | 42 | 1009.8 |
| 20260904232022 | 97 | 267 | 0.0 | 2.0 | 0.00 | 0.00 | 0.00 | 42 | 1009.6 |
| 20260904231546 | 97 | 161 | 0.0 | 2.0 | 0.00 | 0.00 | 0.00 | 42 | 1009.7 |
| 20260904231023 | 97 | 152 | 0.0 | 2.0 | 0.00 | 0.00 | 0.00 | 42 | 1009.6 |
| 20260904230523 | 97 | 151 | 0.0 | 2.0 | 0.00 | 0.00 | 0.00 | 41 | 1009.3 |
| 20260904230023 | 97 | 155 | 1.0 | 2.0 | 0.00 | 0.00 | 0.00 | 41 | 1009.5 |
| 20260904225525 | 98 | 152 | 2.0 | 4.0 | 0.00 | 0.00 | 0.00 | 41 | 1009.4 |
| 20260904225024 | 98 | 162 | 1.0 | 4.0 | 0.00 | 0.00 | 0.00 | 41 | 1009.4 |
| 20260904224522 | 98 | 164 | 1.0 | 3.0 | 0.00 | 0.00 | 0.00 | 41 | 1009.4 |
| 20260904224024 | 98 | 144 | 1.0 | 2.0 | 0.00 | 0.00 | 0.00 | 41 | 1009.6 |
| 20260904223543 | 98 | 150 | 0.0 | 2.0 | 0.00 | 0.00 | 0.00 | 40 | 1009.3 |
| 20260904223044 | 99 | 136 | 1.0 | 4.0 | 0.00 | 0.00 | 0.00 | 40 | 1009.3 |
| 20260904222523 | 99 | 197 | 1.0 | 3.0 | 0.00 | 0.00 | 0.00 | 40 | 1009.2 |
| 20260904222043 | 99 | 189 | 0.0 | 3.0 | 0.00 | 0.00 | 0.00 | 40 | 1009.1 |
| 20260904221543 | 99 | 129 | 1.0 | 3.0 | 0.00 | 0.00 | 0.00 | 40 | 1009.2 |
| 20260904221045 | 99 | 206 | 1.0 | 2.0 | 0.00 | 0.00 | 0.00 | 39 | 1009.2 |
| 20260904220523 | 99 | 145 | 1.0 | 2.0 | 0.00 | 0.00 | 0.00 | 39 | 1009.0 |
| 20260904220024 | 99 | 170 | 1.0 | 3.0 | 0.00 | 0.00 | 0.00 | 39 | 1009.0 |
| 20260904215524 | 100 | 159 | 0.0 | 2.0 | 0.00 | 0.00 | 0.00 | 40 | 1009.3 |
| 20260904215023 | 100 | 0.0 | 0.0 | 0.00 | 0.00 | 0.00 | 37 | 1009.0 | |
| 20260904214521 | 100 | 219 | 1.0 | 2.0 | 0.00 | 0.00 | 0.00 | 38 | 1009.2 |
| 20260904214022 | 101 | 143 | 1.0 | 3.0 | 0.00 | 0.00 | 0.00 | 37 | 1009.1 |
| 20260904213525 | 100 | 185 | 1.0 | 2.0 | 0.00 | 0.00 | 0.00 | 37 | 1009.1 |
| 20260904213025 | 100 | 287 | 1.0 | 3.0 | 0.00 | 0.00 | 0.00 | 36 | 1008.9 |
| 20260904212524 | 100 | 287 | 1.0 | 2.0 | 0.00 | 0.00 | 0.00 | 37 | 1009.1 |
| 20260904212024 | 100 | 291 | 1.0 | 3.0 | 0.00 | 0.00 | 0.00 | 37 | 1009.1 |
| 20260904211602 | 100 | 211 | 1.0 | 3.0 | 0.00 | 0.00 | 0.00 | 38 | 1009.4 |
| 20260904211022 | 100 | 139 | 1.0 | 3.0 | 0.00 | 0.00 | 0.00 | 37 | 1009.3 |
| 20260904210521 | 100 | 185 | 1.0 | 3.0 | 0.00 | 0.00 | 0.00 | 38 | 1009.4 |
| 20260904210043 | 99 | 156 | 1.0 | 4.0 | 0.00 | 0.00 | 0.00 | 37 | 1009.2 |
| 20260904205523 | 100 | 155 | 1.0 | 4.0 | 0.00 | 0.00 | 0.00 | 37 | 1009.3 |
| 20260904205102 | 100 | 159 | 1.0 | 3.0 | 0.00 | 0.00 | 0.00 | 37 | 1009.3 |
| 20260904204525 | 100 | 283 | 0.0 | 2.0 | 0.00 | 0.00 | 0.00 | 37 | 1009.3 |
| 20260904204026 | 100 | 180 | 1.0 | 3.0 | 0.00 | 0.00 | 0.00 | 38 | 1009.6 |
| 20260904203522 | 100 | 260 | 1.0 | 3.0 | 0.00 | 0.00 | 0.00 | 38 | 1009.7 |
| 20260904203023 | 100 | 290 | 1.0 | 3.0 | 0.00 | 0.00 | 0.00 | 38 | 1009.7 |
| 20260904202542 | 100 | 285 | 2.0 | 4.0 | 0.00 | 0.00 | 0.00 | 39 | 1009.8 |
| 20260904202023 | 99 | 279 | 1.0 | 3.0 | 0.00 | 0.00 | 0.00 | 39 | 1010.0 |
| 20260904201523 | 99 | 247 | 1.0 | 3.0 | 0.00 | 0.00 | 0.00 | 39 | 1009.9 |
| 20260904201023 | 99 | 285 | 1.0 | 3.0 | 0.00 | 0.00 | 0.00 | 39 | 1010.1 |
| 20260904200523 | 99 | 287 | 2.0 | 4.0 | 0.00 | 0.00 | 0.00 | 40 | 1010.4 |
| 20260904200021 | 99 | 287 | 1.0 | 3.0 | 0.00 | 0.00 | 0.00 | 40 | 1010.5 |
| 20260904195523 | 99 | 267 | 1.0 | 3.0 | 0.00 | 0.00 | 0.00 | 41 | 1010.8 |
| 20260904195026 | 98 | 183 | 1.0 | 3.0 | 0.00 | 0.00 | 0.00 | 41 | 1010.8 |
| 20260904194526 | 98 | 192 | 1.0 | 4.0 | 0.00 | 0.00 | 0.00 | 42 | 1011.0 |
| 20260904194024 | 98 | 265 | 1.0 | 3.0 | 0.00 | 0.00 | 0.00 | 41 | 1011.1 |
| 20260904193544 | 98 | 282 | 1.0 | 3.0 | 0.00 | 0.00 | 0.00 | 41 | 1011.1 |
| 20260904193025 | 98 | 276 | 0.0 | 2.0 | 0.00 | 0.00 | 0.00 | 41 | 1011.0 |
| 20260904192523 | 98 | 243 | 1.0 | 3.0 | 0.00 | 0.00 | 0.00 | 42 | 1011.4 |
| 20260904192024 | 98 | 143 | 0.0 | 2.0 | 0.00 | 0.00 | 0.00 | 43 | 1011.6 |
| 20260904191523 | 98 | 276 | 1.0 | 2.0 | 0.00 | 0.00 | 0.00 | 41 | 1011.2 |
| 20260904191020 | 98 | 276 | 1.0 | 3.0 | 0.00 | 0.00 | 0.00 | 41 | 1011.1 |
| 20260904190524 | 99 | 272 | 0.0 | 1.0 | 0.00 | 0.00 | 0.00 | 41 | 1011.1 |
| 20260904190027 | 99 | 214 | 1.0 | 4.0 | 0.00 | 0.00 | 0.00 | 41 | 1011.2 |
| 20260904185524 | 99 | 279 | 1.0 | 3.0 | 0.00 | 0.00 | 0.00 | 41 | 1011.1 |
| 20260904185024 | 99 | 256 | 0.0 | 3.0 | 0.00 | 0.00 | 0.00 | 41 | 1011.1 |
| 20260904184544 | 99 | 229 | 1.0 | 2.0 | 0.00 | 0.00 | 0.00 | 42 | 1011.4 |
| 20260904184023 | 99 | 276 | 1.0 | 3.0 | 0.00 | 0.00 | 0.00 | 41 | 1011.2 |
| 20260904183522 | 99 | 277 | 1.0 | 3.0 | 0.00 | 0.00 | 0.00 | 39 | 1010.8 |
| 20260904183021 | 99 | 274 | 1.0 | 3.0 | 0.00 | 0.00 | 0.00 | 40 | 1010.9 |
| 20260904182522 | 99 | 221 | 1.0 | 4.0 | 0.00 | 0.00 | 0.00 | 40 | 1010.9 |
| 20260904182021 | 99 | 281 | 1.0 | 3.0 | 0.00 | 0.00 | 0.00 | 39 | 1010.9 |
| 20260904181524 | 99 | 281 | 1.0 | 3.0 | 0.00 | 0.00 | 0.00 | 40 | 1011.0 |
| 20260904181027 | 99 | 281 | 1.0 | 3.0 | 0.00 | 0.00 | 0.00 | 42 | 1011.4 |
| 20260904180522 | 99 | 272 | 1.0 | 3.0 | 0.00 | 0.00 | 0.00 | 41 | 1011.3 |
| 20260904180021 | 99 | 280 | 1.0 | 3.0 | 0.00 | 0.00 | 0.00 | 42 | 1011.4 |
| 20260904175522 | 100 | 200 | 0.0 | 2.0 | 0.00 | 0.00 | 0.00 | 42 | 1011.5 |
| 20260904175042 | 101 | 152 | 1.0 | 3.0 | 0.00 | 0.00 | 0.00 | 40 | 1011.1 |
| 20260904174521 | 102 | 254 | 2.0 | 4.0 | 0.00 | 0.00 | 0.00 | 39 | 1010.8 |
| 20260904174024 | 102 | 217 | 1.0 | 5.0 | 0.00 | 0.00 | 0.00 | 41 | 1011.1 |
| 20260904173523 | 103 | 141 | 2.0 | 4.0 | 0.00 | 0.00 | 0.00 | 39 | 1011.0 |
| 20260904173022 | 103 | 217 | 2.0 | 6.0 | 0.00 | 0.00 | 0.00 | 38 | 1010.7 |
| 20260904172522 | 103 | 240 | 1.0 | 4.0 | 0.00 | 0.00 | 0.00 | 39 | 1011.0 |
| 20260904172022 | 103 | 165 | 1.0 | 4.0 | 0.00 | 0.00 | 0.00 | 38 | 1010.9 |
| 20260904171522 | 103 | 254 | 1.0 | 4.0 | 0.00 | 0.00 | 0.00 | 38 | 1010.8 |
| 20260904171043 | 102 | 274 | 1.0 | 3.0 | 0.00 | 0.00 | 0.00 | 39 | 1010.6 |
| 20260904170522 | 101 | 253 | 1.0 | 3.0 | 0.00 | 0.00 | 0.00 | 41 | 1011.2 |
| 20260904170023 | 101 | 236 | 1.0 | 4.0 | 0.00 | 0.00 | 0.00 | 42 | 1011.3 |
| 20260904165523 | 100 | 179 | 1.0 | 4.0 | 0.00 | 0.00 | 0.00 | 43 | 1011.4 |
| 20260904165023 | 100 | 268 | 1.0 | 4.0 | 0.00 | 0.00 | 0.00 | 43 | 1011.6 |
| 20260904164523 | 100 | 153 | 2.0 | 5.0 | 0.00 | 0.00 | 0.00 | 44 | 1011.9 |
| 20260904164043 | 100 | 159 | 1.0 | 3.0 | 0.00 | 0.00 | 0.00 | 44 | 1011.9 |
| 20260904163523 | 100 | 232 | 2.0 | 5.0 | 0.00 | 0.00 | 0.00 | 43 | 1011.8 |
| 20260904163023 | 99 | 283 | 1.0 | 5.0 | 0.00 | 0.00 | 0.00 | 44 | 1011.8 |
| 20260904162523 | 98 | 162 | 1.0 | 4.0 | 0.00 | 0.00 | 0.00 | 47 | 1012.5 |
| 20260904162024 | 97 | 265 | 1.0 | 3.0 | 0.00 | 0.00 | 0.00 | 48 | 1012.6 |
| 20260904161526 | 96 | 166 | 1.0 | 4.0 | 0.00 | 0.00 | 0.00 | 50 | 1013.1 |
| 20260904161024 | 96 | 142 | 2.0 | 4.0 | 0.00 | 0.00 | 0.00 | 51 | 1013.2 |
| 20260904160524 | 96 | 146 | 2.0 | 4.0 | 0.00 | 0.00 | 0.00 | 50 | 1013.2 |
| 20260904160021 | 95 | 167 | 2.0 | 5.0 | 0.00 | 0.00 | 0.00 | 50 | 1013.2 |
| 20260904155521 | 95 | 226 | 2.0 | 6.0 | 0.00 | 0.00 | 0.00 | 51 | 1013.3 |
| 20260904155022 | 95 | 169 | 2.0 | 7.0 | 0.00 | 0.00 | 0.00 | 50 | 1013.1 |
| 20260904154525 | 95 | 151 | 1.0 | 3.0 | 0.00 | 0.00 | 0.00 | 51 | 1013.2 |
| 20260904154027 | 94 | 147 | 1.0 | 5.0 | 0.00 | 0.00 | 0.00 | 52 | 1013.3 |
| 20260904153524 | 94 | 174 | 1.0 | 4.0 | 0.00 | 0.00 | 0.00 | 52 | 1013.4 |
| 20260904153025 | 93 | 164 | 2.0 | 4.0 | 0.00 | 0.00 | 0.00 | 53 | 1013.5 |
| 20260904152526 | 94 | 155 | 2.0 | 5.0 | 0.00 | 0.00 | 0.00 | 52 | 1013.4 |
| 20260904152021 | 94 | 166 | 2.0 | 6.0 | 0.00 | 0.00 | 0.00 | 52 | 1013.4 |
| 20260904151522 | 94 | 187 | 1.0 | 3.0 | 0.00 | 0.00 | 0.00 | 53 | 1013.5 |
| 20260904151023 | 93 | 175 | 2.0 | 4.0 | 0.00 | 0.00 | 0.00 | 53 | 1013.5 |
| 20260904150522 | 94 | 152 | 2.0 | 7.0 | 0.00 | 0.00 | 0.00 | 53 | 1013.4 |
| 20260904150022 | 93 | 208 | 1.0 | 5.0 | 0.00 | 0.00 | 0.00 | 53 | 1013.4 |
| 20260904145543 | 93 | 164 | 2.0 | 5.0 | 0.00 | 0.00 | 0.00 | 54 | 1013.6 |
| 20260904145022 | 92 | 258 | 1.0 | 3.0 | 0.00 | 0.00 | 0.00 | 55 | 1013.7 |
| 20260904144535 | 92 | 142 | 2.0 | 5.0 | 0.00 | 0.00 | 0.00 | 56 | 1013.8 |
| 20260904144042 | 91 | 205 | 1.0 | 3.0 | 0.00 | 0.00 | 0.00 | 56 | 1013.9 |
| 20260904143522 | 90 | 186 | 2.0 | 3.0 | 0.00 | 0.00 | 0.00 | 58 | 1014.6 |
| 20260904143021 | 89 | 166 | 1.0 | 4.0 | 0.00 | 0.00 | 0.00 | 59 | 1016.4 |
| 20260904142543 | 89 | 169 | 1.0 | 2.0 | 0.00 | 0.00 | 0.00 | 60 | 1017.9 |
| 20260904142022 | 88 | 157 | 2.0 | 3.0 | 0.00 | 0.00 | 0.00 | 62 | 1020.1 |
| 20260904141522 | 87 | 176 | 1.0 | 3.0 | 0.00 | 0.00 | 0.00 | 62 | 1023.5 |
| 20260904141025 | 87 | 195 | 2.0 | 3.0 | 0.00 | 0.00 | 0.00 | 63 | 1026.3 |
| 20260904140604 | 86 | 223 | 2.0 | 3.0 | 0.00 | 0.00 | 0.00 | 64 | 1028.9 |
| 20260904140026 | 86 | 183 | 2.0 | 3.0 | 0.00 | 0.00 | 0.00 | 64 | 1030.7 |
| 20260904135523 | 85 | 198 | 2.0 | 3.0 | 0.00 | 0.00 | 0.00 | 65 | 1033.5 |
| 20260904135023 | 85 | 183 | 2.0 | 4.0 | 0.00 | 0.00 | 0.00 | 66 | 1035.9 |
| 20260904134523 | 84 | 179 | 2.0 | 3.0 | 0.00 | 0.00 | 0.00 | 67 | 1042.3 |
| 20260904134025 | 84 | 190 | 1.0 | 2.0 | 0.00 | 0.00 | 0.00 | 68 | 1045.4 |
| 20260904133523 | 84 | 187 | 1.0 | 2.0 | 0.00 | 0.00 | 0.00 | 68 | 1047.4 |
| 20260904133024 | 83 | 137 | 1.0 | 2.0 | 0.00 | 0.00 | 0.00 | 68 | 1008.1 |
| 20260904132525 | 83 | 180 | 1.0 | 2.0 | 0.00 | 0.00 | 0.00 | 69 | 858.3 |
| 20260904132024 | 82 | 149 | 1.0 | 2.0 | 0.00 | 0.00 | 0.00 | 69 | 858.2 |
| 20260904131523 | 82 | 181 | 2.0 | 3.0 | 0.00 | 0.00 | 0.00 | 70 | 858.2 |
| 20260904131023 | 81 | 179 | 1.0 | 2.0 | 0.00 | 0.00 | 0.00 | 71 | 858.1 |
| 20260904130523 | 81 | 193 | 1.0 | 2.0 | 0.00 | 0.00 | 0.00 | 72 | 858.1 |
| 20260904130025 | 81 | 211 | 1.0 | 2.0 | 0.00 | 0.00 | 0.00 | 73 | 858.0 |
| 20260904125527 | 80 | 203 | 1.0 | 2.0 | 0.00 | 0.00 | 0.00 | 74 | 858.0 |
| 20260904125024 | 80 | 182 | 1.0 | 2.0 | 0.00 | 0.00 | 0.00 | 75 | 858.0 |
| 20260904124524 | 79 | 206 | 1.0 | 1.0 | 0.00 | 0.00 | 0.00 | 75 | 857.9 |
| 20260904124026 | 79 | 208 | 1.0 | 1.0 | 0.00 | 0.00 | 0.00 | 76 | 857.9 |
| 20260904123524 | 79 | 206 | 1.0 | 1.0 | 0.00 | 0.00 | 0.00 | 77 | 857.9 |
| 20260904123024 | 79 | 213 | 1.0 | 1.0 | 0.00 | 0.00 | 0.00 | 76 | 857.9 |
| 20260904122524 | 79 | 206 | 0.0 | 1.0 | 0.00 | 0.00 | 0.00 | 77 | 857.9 |
| 20260904122025 | 78 | 0.0 | 0.0 | 0.00 | 0.00 | 0.00 | 77 | 857.9 | |
| 20260904121524 | 78 | 0.0 | 0.0 | 0.00 | 0.00 | 0.00 | 77 | 857.9 | |
| 20260904121104 | 78 | 0.0 | 0.0 | 0.00 | 0.00 | 0.00 | 77 | 857.9 | |
| 20260904120525 | 79 | 0.0 | 0.0 | 0.00 | 0.00 | 0.00 | 77 | 857.9 | |
| 20260904120025 | 79 | 0.0 | 0.0 | 0.00 | 0.00 | 0.00 | 76 | 857.9 | |
| 20260904115524 | 79 | 214 | 0.0 | 0.0 | 0.00 | 0.00 | 0.00 | 76 | 857.9 |
| 20260904115027 | 79 | 227 | 1.0 | 1.0 | 0.00 | 0.00 | 0.00 | 75 | 857.9 |
| 20260904114528 | 79 | 232 | 1.0 | 2.0 | 0.00 | 0.00 | 0.00 | 75 | 857.9 |
| 20260904114047 | 79 | 241 | 2.0 | 2.0 | 0.00 | 0.00 | 0.00 | 75 | 902.4 |
| 20260904113525 | 79 | 235 | 2.0 | 2.0 | 0.00 | 0.00 | 0.00 | 75 | 1078.1 |
| 20260904113025 | 79 | 229 | 1.0 | 2.0 | 0.00 | 0.00 | 0.00 | 74 | 1076.6 |
| 20260904112526 | 79 | 228 | 1.0 | 2.0 | 0.00 | 0.00 | 0.00 | 74 | 1076.3 |
| 20260904112026 | 79 | 230 | 1.0 | 2.0 | 0.00 | 0.00 | 0.00 | 74 | 1075.4 |
| 20260904111528 | 79 | 224 | 1.0 | 2.0 | 0.00 | 0.00 | 0.00 | 74 | 1073.7 |
| 20260904111048 | 79 | 224 | 1.0 | 1.0 | 0.00 | 0.00 | 0.00 | 74 | 1074.0 |
| 20260904110547 | 79 | 219 | 1.0 | 2.0 | 0.00 | 0.00 | 0.00 | 74 | 1073.5 |
| 20260904110025 | 80 | 212 | 1.0 | 1.0 | 0.00 | 0.00 | 0.00 | 74 | 1073.7 |
| 20260904105526 | 80 | 221 | 1.0 | 1.0 | 0.00 | 0.00 | 0.00 | 73 | 1072.3 |
| 20260904105047 | 80 | 221 | 1.0 | 2.0 | 0.00 | 0.00 | 0.00 | 73 | 1072.5 |
| 20260904104526 | 80 | 215 | 1.0 | 1.0 | 0.00 | 0.00 | 0.00 | 73 | 1071.9 |
| 20260904104026 | 80 | 216 | 1.0 | 2.0 | 0.00 | 0.00 | 0.00 | 73 | 1071.4 |
| 20260904103527 | 80 | 219 | 1.0 | 2.0 | 0.00 | 0.00 | 0.00 | 73 | 1070.0 |
| 20260904103047 | 80 | 220 | 1.0 | 1.0 | 0.00 | 0.00 | 0.00 | 73 | 1069.4 |
| 20260904102547 | 80 | 222 | 1.0 | 2.0 | 0.00 | 0.00 | 0.00 | 72 | 1067.7 |
| 20260904102047 | 80 | 197 | 1.0 | 1.0 | 0.00 | 0.00 | 0.00 | 72 | 1067.3 |
| 20260904101527 | 80 | 213 | 1.0 | 1.0 | 0.00 | 0.00 | 0.00 | 72 | 1066.4 |
| 20260904101026 | 80 | 225 | 1.0 | 2.0 | 0.00 | 0.00 | 0.00 | 72 | 1066.0 |
| 20260904100527 | 80 | 217 | 1.0 | 2.0 | 0.00 | 0.00 | 0.00 | 72 | 1065.6 |
| 20260904100047 | 80 | 218 | 1.0 | 2.0 | 0.00 | 0.00 | 0.00 | 72 | 1065.0 |
| 20260904095527 | 81 | 213 | 1.0 | 2.0 | 0.00 | 0.00 | 0.00 | 72 | 1066.0 |
| 20260904095027 | 81 | 207 | 1.0 | 2.0 | 0.00 | 0.00 | 0.00 | 72 | 1065.7 |
| 20260904094528 | 81 | 225 | 1.0 | 2.0 | 0.00 | 0.00 | 0.00 | 72 | 1064.0 |
| 20260904094031 | 81 | 226 | 1.0 | 2.0 | 0.00 | 0.00 | 0.00 | 71 | 1063.7 |
| 20260904093528 | 81 | 231 | 2.0 | 3.0 | 0.00 | 0.00 | 0.00 | 71 | 1062.3 |
| 20260904093028 | 81 | 225 | 1.0 | 2.0 | 0.00 | 0.00 | 0.00 | 70 | 1058.3 |
| 20260904092528 | 81 | 213 | 1.0 | 2.0 | 0.00 | 0.00 | 0.00 | 70 | 1058.6 |
| 20260904092027 | 81 | 211 | 1.0 | 2.0 | 0.00 | 0.00 | 0.00 | 70 | 1058.3 |
| 20260904091528 | 81 | 201 | 1.0 | 2.0 | 0.00 | 0.00 | 0.00 | 71 | 1059.7 |
| 20260904091028 | 82 | 201 | 1.0 | 2.0 | 0.00 | 0.00 | 0.00 | 70 | 1059.4 |
| 20260904090530 | 82 | 200 | 1.0 | 2.0 | 0.00 | 0.00 | 0.00 | 70 | 1059.0 |
| 20260904090030 | 82 | 179 | 1.0 | 2.0 | 0.00 | 0.00 | 0.00 | 70 | 1059.3 |
| 20260904085552 | 81 | 189 | 1.0 | 2.0 | 0.00 | 0.00 | 0.00 | 71 | 1060.3 |
| 20260904085048 | 81 | 180 | 1.0 | 2.0 | 0.00 | 0.00 | 0.00 | 71 | 1061.6 |
| 20260904084529 | 81 | 195 | 1.0 | 2.0 | 0.00 | 0.00 | 0.00 | 71 | 1062.9 |
| 20260904084030 | 82 | 184 | 1.0 | 2.0 | 0.00 | 0.00 | 0.00 | 71 | 1064.8 |
| 20260904083528 | 82 | 201 | 1.0 | 2.0 | 0.00 | 0.00 | 0.00 | 71 | 1064.0 |
| 20260904083048 | 82 | 187 | 1.0 | 2.0 | 0.00 | 0.00 | 0.00 | 71 | 1064.1 |
| 20260904082529 | 82 | 202 | 1.0 | 2.0 | 0.00 | 0.00 | 0.00 | 71 | 1063.5 |
| 20260904082029 | 82 | 214 | 1.0 | 2.0 | 0.00 | 0.00 | 0.00 | 71 | 1062.9 |
| 20260904081529 | 82 | 213 | 1.0 | 2.0 | 0.00 | 0.00 | 0.00 | 71 | 1062.4 |
| 20260904081050 | 82 | 203 | 1.0 | 2.0 | 0.00 | 0.00 | 0.00 | 71 | 1063.6 |
| 20260904080529 | 82 | 205 | 1.0 | 1.0 | 0.00 | 0.00 | 0.00 | 71 | 1061.9 |
| 20260904080030 | 82 | 194 | 1.0 | 2.0 | 0.00 | 0.00 | 0.00 | 70 | 1059.9 |
| 20260904075531 | 82 | 211 | 1.0 | 1.0 | 0.00 | 0.00 | 0.00 | 70 | 1058.9 |
| 20260904075030 | 83 | 188 | 1.0 | 1.0 | 0.00 | 0.00 | 0.00 | 70 | 1057.7 |
| 20260904074529 | 83 | 182 | 1.0 | 2.0 | 0.00 | 0.00 | 0.00 | 70 | 1057.3 |
| 20260904074029 | 83 | 210 | 1.0 | 1.0 | 0.00 | 0.00 | 0.00 | 70 | 1056.1 |
| 20260904073532 | 83 | 205 | 1.0 | 1.0 | 0.00 | 0.00 | 0.00 | 69 | 1054.9 |
| 20260904073030 | 83 | 207 | 1.0 | 2.0 | 0.00 | 0.00 | 0.00 | 69 | 1054.3 |
| 20260904072531 | 83 | 218 | 1.0 | 2.0 | 0.00 | 0.00 | 0.00 | 69 | 1051.6 |
| 20260904072033 | 83 | 210 | 1.0 | 2.0 | 0.00 | 0.00 | 0.00 | 68 | 1050.5 |
| 20260904071531 | 83 | 136 | 1.0 | 1.0 | 0.00 | 0.00 | 0.00 | 68 | 1050.3 |
| 20260904071050 | 83 | 200 | 1.0 | 2.0 | 0.00 | 0.00 | 0.00 | 68 | 1049.1 |
| 20260904070532 | 84 | 204 | 1.0 | 2.0 | 0.00 | 0.00 | 0.00 | 68 | 1049.1 |
| 20260904070031 | 84 | 200 | 1.0 | 2.0 | 0.00 | 0.00 | 0.00 | 68 | 1048.9 |
| 20260904065532 | 84 | 193 | 1.0 | 2.0 | 0.00 | 0.00 | 0.00 | 68 | 1048.3 |
| 20260904065030 | 84 | 184 | 1.0 | 2.0 | 0.00 | 0.00 | 0.00 | 68 | 1048.0 |
| 20260904064530 | 84 | 181 | 1.0 | 2.0 | 0.00 | 0.00 | 0.00 | 68 | 1048.2 |
| 20260904064031 | 84 | 192 | 1.0 | 2.0 | 0.00 | 0.00 | 0.00 | 68 | 1047.9 |
| 20260904063532 | 84 | 187 | 1.0 | 2.0 | 0.00 | 0.00 | 0.00 | 67 | 1046.4 |
| 20260904063030 | 84 | 167 | 1.0 | 2.0 | 0.00 | 0.00 | 0.00 | 67 | 1045.2 |
| 20260904062531 | 84 | 180 | 1.0 | 2.0 | 0.00 | 0.00 | 0.00 | 67 | 1045.0 |
| 20260904062031 | 84 | 190 | 1.0 | 2.0 | 0.00 | 0.00 | 0.00 | 67 | 1044.4 |
| 20260904061531 | 85 | 146 | 1.0 | 2.0 | 0.00 | 0.00 | 0.00 | 67 | 1043.4 |